| time (UTC) | temp C | wind direction | speed KPH | gust KPH | rain 1hr cm | rain 24hr cm | rain mn cm | humidity % | barometer mb |
| 20260831134526 | 21 | 212 | 4.8 | 14.5 | 0.00 | 0.28 | 0.25 | 70 | 1006.4 |
| 20260831133144 | 21 | 234 | 6.4 | 20.9 | 0.00 | 0.28 | 0.25 | 70 | 1006.4 |
| 20260831131600 | 21 | 203 | 8.0 | 17.7 | 0.00 | 0.28 | 0.25 | 70 | 1006.4 |
| 20260831130046 | 21 | 209 | 8.0 | 22.5 | 0.00 | 0.28 | 0.25 | 70 | 1006.3 |
| 20260831124539 | 21 | 216 | 11.3 | 22.5 | 0.00 | 0.28 | 0.25 | 70 | 1006.1 |
| 20260831123137 | 21 | 211 | 12.9 | 22.5 | 0.00 | 0.28 | 0.25 | 72 | 1006.2 |
| 20260831121546 | 21 | 208 | 9.7 | 24.1 | 0.00 | 0.28 | 0.25 | 73 | 1006.3 |
| 20260831120150 | 21 | 222 | 12.9 | 25.7 | 0.00 | 0.28 | 0.25 | 75 | 1006.5 |
| 20260831114556 | 21 | 182 | 12.9 | 24.1 | 0.00 | 0.33 | 0.25 | 77 | 1006.3 |
| 20260831113046 | 20 | 196 | 9.7 | 20.9 | 0.00 | 0.33 | 0.25 | 80 | 1006.3 |
| 20260831111642 | 20 | 222 | 11.3 | 16.1 | 0.00 | 0.33 | 0.25 | 82 | 1006.3 |
| 20260831110050 | 20 | 194 | 9.7 | 20.9 | 0.00 | 0.33 | 0.25 | 82 | 1006.3 |
| 20260831104515 | 19 | 199 | 8.0 | 22.5 | 0.05 | 0.33 | 0.25 | 86 | 1006.3 |
| 20260831103056 | 18 | 165 | 8.0 | 12.9 | 0.20 | 0.33 | 0.25 | 87 | 1006.5 |
| 20260831101540 | 18 | 193 | 3.2 | 9.7 | 0.20 | 0.33 | 0.25 | 91 | 1006.7 |
| 20260831100145 | 17 | 212 | 4.8 | 16.1 | 0.20 | 0.33 | 0.25 | 88 | 1006.9 |
| 20260831094643 | 17 | 221 | 8.0 | 20.9 | 0.18 | 0.36 | 0.23 | 88 | 1007.0 |
| 20260831093040 | 19 | 215 | 8.0 | 16.1 | 0.00 | 0.18 | 0.05 | 82 | 1006.9 |
| 20260831091518 | 20 | 193 | 6.4 | 16.1 | 0.00 | 0.18 | 0.05 | 82 | 1007.0 |
| 20260831090011 | 18 | 202 | 6.4 | 12.9 | 0.00 | 0.18 | 0.05 | 87 | 1007.1 |
| 20260831084512 | 18 | 173 | 6.4 | 16.1 | 0.00 | 0.18 | 0.05 | 87 | 1007.2 |
| 20260831083007 | 18 | 197 | 8.0 | 14.5 | 0.00 | 0.18 | 0.05 | 89 | 1007.2 |
| 20260831081508 | 17 | 168 | 8.0 | 19.3 | 0.00 | 0.18 | 0.05 | 91 | 1007.3 |
| 20260831080002 | 17 | 189 | 8.0 | 17.7 | 0.05 | 0.18 | 0.05 | 93 | 1007.3 |
| 20260831074502 | 17 | 163 | 4.8 | 12.9 | 0.05 | 0.18 | 0.05 | 94 | 1007.3 |
| 20260831073058 | 16 | 214 | 4.8 | 12.9 | 0.05 | 0.18 | 0.05 | 94 | 1007.3 |
| 20260831071555 | 16 | 174 | 4.8 | 12.9 | 0.05 | 0.18 | 0.05 | 93 | 1007.5 |
| 20260831070050 | 16 | 170 | 3.2 | 9.7 | 0.03 | 0.15 | 0.03 | 94 | 1007.7 |
| 20260831064548 | 15 | 190 | 3.2 | 6.4 | 0.00 | 0.13 | 0.00 | 94 | 1007.8 |
| 20260831063100 | 15 | 211 | 0.0 | 0.0 | 0.00 | 0.13 | 0.00 | 94 | 1007.8 |
| 20260831061543 | 14 | 213 | 0.0 | 0.0 | 0.00 | 0.13 | 0.00 | 94 | 1007.7 |
| 20260831060041 | 13 | 213 | 0.0 | 0.0 | 0.00 | 0.13 | 0.00 | 94 | 1007.7 |
| 20260831054539 | 13 | 213 | 0.0 | 0.0 | 0.00 | 0.13 | 0.00 | 94 | 1007.8 |
| 20260831053057 | 12 | 213 | 0.0 | 0.0 | 0.00 | 0.13 | 0.00 | 94 | 1007.9 |
| 20260831051537 | 11 | 213 | 0.0 | 0.0 | 0.00 | 0.13 | 0.00 | 93 | 1008.0 |
| 20260831050032 | 11 | 213 | 0.0 | 0.0 | 0.00 | 0.13 | 0.00 | 93 | 1008.0 |
| 20260831044612 | 10 | 213 | 0.0 | 0.0 | 0.00 | 0.15 | 0.00 | 93 | 1008.0 |
| 20260831043028 | 10 | 213 | 0.0 | 0.0 | 0.00 | 0.15 | 0.00 | 93 | 1008.2 |
| 20260831041533 | 10 | 213 | 0.0 | 0.0 | 0.00 | 0.15 | 0.00 | 92 | 1008.6 |
| 20260831040027 | 9 | 213 | 0.0 | 0.0 | 0.00 | 0.15 | 0.00 | 91 | 1008.4 |
| 20260831034523 | 9 | 213 | 0.0 | 0.0 | 0.00 | 0.15 | 0.00 | 92 | 1008.4 |
| 20260831033024 | 10 | 213 | 0.0 | 0.0 | 0.00 | 0.15 | 0.00 | 91 | 1008.4 |
| 20260831031531 | 10 | 213 | 0.0 | 0.0 | 0.00 | 0.15 | 0.00 | 92 | 1008.5 |
| 20260831030020 | 10 | 213 | 0.0 | 0.0 | 0.00 | 0.15 | 0.00 | 91 | 1008.5 |
| 20260831024518 | 10 | 213 | 0.0 | 0.0 | 0.00 | 0.15 | 0.00 | 91 | 1008.7 |
| 20260831023017 | 10 | 213 | 0.0 | 0.0 | 0.00 | 0.15 | 0.00 | 91 | 1008.7 |
| 20260831021518 | 10 | 213 | 0.0 | 0.0 | 0.00 | 0.15 | 0.00 | 91 | 1008.9 |
| 20260831020014 | 10 | 213 | 0.0 | 0.0 | 0.00 | 0.15 | 0.00 | 90 | 1009.0 |
| 20260831014515 | 10 | 213 | 0.0 | 0.0 | 0.00 | 0.15 | 0.00 | 91 | 1009.0 |
| 20260831013010 | 10 | 213 | 0.0 | 0.0 | 0.00 | 0.15 | 0.00 | 90 | 1009.1 |
| 20260831011509 | 11 | 213 | 0.0 | 0.0 | 0.00 | 0.15 | 0.00 | 91 | 1008.9 |
| 20260831010007 | 10 | 213 | 0.0 | 0.0 | 0.00 | 0.15 | 0.00 | 90 | 1008.9 |
| 20260831004506 | 11 | 213 | 0.0 | 0.0 | 0.00 | 0.18 | 0.00 | 90 | 1009.1 |
| 20260831003003 | 11 | 213 | 0.0 | 0.0 | 0.00 | 0.18 | 0.00 | 89 | 1009.2 |
| 20260831001600 | 12 | 213 | 0.0 | 0.0 | 0.00 | 0.18 | 0.00 | 89 | 1009.2 |
| 20260830234601 | 12 | 213 | 0.0 | 0.0 | 0.00 | 0.18 | 0.00 | 89 | 1009.0 |
| 20260830233050 | 13 | 213 | 0.0 | 0.0 | 0.00 | 0.18 | 0.00 | 90 | 1009.0 |
| 20260830231553 | 13 | 213 | 0.0 | 4.8 | 0.00 | 0.18 | 0.00 | 90 | 1009.2 |
| 20260830230050 | 13 | 213 | 1.6 | 3.2 | 0.00 | 0.18 | 0.00 | 89 | 1009.0 |
| 20260830224548 | 13 | 213 | 0.0 | 0.0 | 0.00 | 0.18 | 0.00 | 88 | 1008.8 |
| 20260830223043 | 14 | 213 | 0.0 | 0.0 | 0.00 | 0.18 | 0.00 | 89 | 1008.9 |
| 20260830221539 | 14 | 213 | 0.0 | 1.6 | 0.00 | 0.18 | 0.00 | 88 | 1008.9 |
| 20260830220039 | 15 | 212 | 1.6 | 6.4 | 0.00 | 0.18 | 0.00 | 87 | 1009.0 |
| 20260830214536 | 15 | 220 | 1.6 | 6.4 | 0.00 | 0.18 | 0.18 | 86 | 1008.9 |
| 20260830213048 | 15 | 228 | 1.6 | 6.4 | 0.00 | 0.18 | 0.18 | 85 | 1008.9 |
| 20260830211534 | 16 | 244 | 1.6 | 12.9 | 0.00 | 0.18 | 0.18 | 85 | 1008.7 |
| 20260830210028 | 16 | 225 | 3.2 | 8.0 | 0.00 | 0.18 | 0.18 | 85 | 1008.6 |
| 20260830204519 | 16 | 232 | 3.2 | 8.0 | 0.00 | 0.18 | 0.18 | 86 | 1008.6 |
| 20260830203100 | 16 | 242 | 1.6 | 8.0 | 0.00 | 0.18 | 0.18 | 87 | 1008.6 |
| 20260830201540 | 16 | 238 | 0.0 | 0.0 | 0.00 | 0.18 | 0.18 | 86 | 1008.6 |
| 20260830200138 | 16 | 238 | 0.0 | 0.0 | 0.00 | 0.18 | 0.18 | 86 | 1008.5 |
| 20260830194556 | 16 | 261 | 0.0 | 4.8 | 0.00 | 0.18 | 0.18 | 85 | 1008.3 |
| 20260830193157 | 16 | 242 | 3.2 | 6.4 | 0.00 | 0.18 | 0.18 | 85 | 1008.3 |
| 20260830191611 | 16 | 238 | 1.6 | 4.8 | 0.00 | 0.18 | 0.18 | 84 | 1008.1 |
| 20260830190042 | 16 | 247 | 0.0 | 6.4 | 0.00 | 0.18 | 0.18 | 83 | 1007.8 |
| 20260830184516 | 17 | 254 | 0.0 | 6.4 | 0.00 | 0.18 | 0.18 | 83 | 1007.6 |
| 20260830183003 | 17 | 246 | 3.2 | 9.7 | 0.00 | 0.18 | 0.18 | 84 | 1007.5 |
| 20260830181558 | 17 | 261 | 1.6 | 11.3 | 0.00 | 0.18 | 0.18 | 84 | 1007.2 |
| 20260830180016 | 17 | 315 | 4.8 | 12.9 | 0.00 | 0.18 | 0.18 | 84 | 1006.9 |
| 20260830174618 | 17 | 225 | 3.2 | 16.1 | 0.00 | 0.18 | 0.18 | 86 | 1006.6 |
| 20260830171538 | 18 | 215 | 3.2 | 14.5 | 0.00 | 0.18 | 0.18 | 86 | 1006.2 |
| 20260830170033 | 18 | 261 | 1.6 | 14.5 | 0.00 | 0.18 | 0.18 | 85 | 1005.9 |
| 20260830164643 | 18 | 232 | 3.2 | 19.3 | 0.00 | 0.18 | 0.18 | 84 | 1005.7 |
| 20260830163037 | 18 | 247 | 4.8 | 17.7 | 0.00 | 0.18 | 0.18 | 84 | 1005.1 |
| 20260830161636 | 19 | 235 | 6.4 | 20.9 | 0.00 | 0.18 | 0.18 | 84 | 1004.7 |
| 20260830160105 | 20 | 263 | 8.0 | 27.4 | 0.00 | 0.18 | 0.18 | 82 | 1004.4 |
| 20260830154652 | 20 | 248 | 6.4 | 19.3 | 0.00 | 0.18 | 0.18 | 84 | 1004.2 |
| 20260830153051 | 20 | 200 | 3.2 | 19.3 | 0.00 | 0.18 | 0.18 | 86 | 1003.9 |
| 20260830151513 | 20 | 240 | 6.4 | 19.3 | 0.00 | 0.18 | 0.18 | 85 | 1003.6 |
| 20260830150116 | 19 | 234 | 8.0 | 20.9 | 0.00 | 0.18 | 0.18 | 87 | 1003.5 |
| 20260830144653 | 20 | 229 | 9.7 | 22.5 | 0.00 | 0.18 | 0.18 | 86 | 1003.0 |
| 20260830143047 | 20 | 196 | 11.3 | 20.9 | 0.03 | 0.18 | 0.18 | 87 | 1002.7 |
| 20260830141542 | 20 | 208 | 11.3 | 25.7 | 0.03 | 0.18 | 0.18 | 88 | 1002.7 |